STARLINK-31261, 59084

Orbit data source: Space-Track

STARLINK-31261, 59084 is a payload satellite owned by SpaceX/Seattle (US) in LEO that was launched on Thu, 29 Feb 2024 UTC via an FALCON 9 launch vehicle from the Air Force Eastern Test Range (AFETR). Payload-class satellites include a variety of spacecraft equipped with specific instruments for various scientific and technological missions. These include communications satellites like Starlink; space stations such as the ISS; scientific satellites like the Hubble; Earth observation satellites from companies like Planet Labs, Umbra, and HawkEye 360; GPS; miniature CubeSats for education and research; and military/defense satellites.

Loading next visibility...
Identifier
59084, 2024-041L
Orbit
LEO
Country
Flag of USUS
Related business
Manufacturer
SpaceX/Seattle
Mission
Operational Commercial Communications
Bus & Motor
STARLINK V2M, Unknown motor
Mass
730 kg wet, ~700 kg dry
Launch date (UTC)
2024-02-29 (2 years ago)
Launch vehicle
FALCON 9
Launch site
Air Force Eastern Test Range (AFETR)
Object type
Payload
Rocket body
Debris
Shape & HBR
Box + 2 Pan, 17.7 m
Radar Cross Section
33.884 m², Large (>1 m²)

Expand to show TLE details & history
Last TLE update: 2 days ago

TLE from 2 days ago
0 STARLINK-31261
1 59084U 24041L   26171.11092585  .00000721  00000-0  35739-4 0  9996
2 59084  43.0050  92.4412 0001248 276.2777  83.7932 15.27582467129983
Epoch: 2026-06-20T02:39Z
TLE epoch observation values (Epoch: 2026-06-20T02:39:43.993Z)
Latitude
-0.00005°
Longitude
144.17759°
Altitude
482.725 km
Speed
7.626 km/s
True Right ascension
06h 09m 45s
True Declination
0° 00' 00"
Sunlit
Object was in daylight at epoch
Visualization orbit readout
Latitude
Unknown
Longitude
Unknown
Altitude
Unknown
Speed
Unknown
Apparent Right ascension
Unknown
Apparent Declination
Unknown
Sunlit
N/A
Visualization observer readout
Local Sidereal Time
00:31:41
Azimuth
Unknown
Elevation
Unknown
Doppler factor
Unknown
Orbital elements
Apogee altitude
485.843 km
Perigee altitude
484.13 km
Semi-major axis
6,863.123 km
Eccentricity
0.00012
Inclination
43.005°
RAAN
92.4412°
Arg. of periapsis
276.2777°
True anomaly
83.80742°
Mean anomaly
83.7932°
Eccentric anomaly
83.80031°
Mean motion
3.81734 °/min
Orbital period
94.31 mins
BSTAR
0.000035739
Loading maneuver chart data...
Computing Atmospheric mass density...
Loading historical data...
Loading historical data...
Loading historical data...
Loading historical data...
Loading historical data...
Loading historical data...
Loading historical data...

Documentation

Showing up to 5 results
|